Theta_e
310 308 308 309 311 312 310 309 309 309 310 310 310 310 310 310 310 313 317 319 315 315 314 319 322 322 323 327 330 331 329 328 329 330 331 329 331 330 332 333 333 335 333 332 331
311 309 309 310 310 309 309 310 310 310 310 310 310 310 310 310 315 316 313 314 314 314 321 321 322 322 323 324 326 326 326 325 326 329 329 328 328 329 328 329 328 331 331 330 330
311 311 310 309 309 310 310 310 311 310 310 311 311 311 311 311 318 319 312 313 314 313 318 320 321 322 323 324 324 324 324 323 325 323 324 324 324 324 327 329 325 326 327 330 329
311 310 309 310 310 310 311 311 311 311 311 311 311 311 311 313 320 316 313 312 311 312 319 320 321 322 323 323 324 324 322 322 322 323 324 323 323 323 324 325 325 325 328 328 330
310 310 310 310 311 311 311 311 311 311 311 311 311 311 312 318 317 314 314 313 312 315 319 320 320 322 323 322 322 323 323 323 322 322 323 322 323 323 323 322 323 324 324 326 327
310 310 310 310 311 311 311 311 311 310 311 311 311 311 316 317 313 314 312 312 312 318 319 320 322 322 321 322 322 322 322 321 321 321 322 322 323 323 322 323 323 323 323 323 325
309 310 310 310 310 311 311 311 311 311 310 310 310 311 315 316 313 313 313 313 312 314 319 320 320 320 322 322 323 321 322 322 322 321 323 323 323 324 323 323 323 322 322 322 322
309 309 309 310 310 310 311 311 311 311 311 310 310 314 315 311 312 312 313 313 313 314 315 318 319 320 321 321 320 322 322 322 323 323 322 322 321 322 322 322 321 321 320 320 321
308 308 308 309 309 309 310 310 311 311 311 310 313 315 317 313 314 313 314 314 314 316 317 317 318 320 321 322 322 322 322 322 321 321 321 321 322 322 321 320 320 320 320 320 320
308 308 308 308 308 308 309 309 309 309 310 310 310 315 313 315 313 312 312 313 316 317 318 318 319 321 322 322 321 320 319 319 319 320 321 320 320 321 320 320 320 320 320 320 320
310 309 308 308 308 310 311 313 319 319 317 315 314 314 315 314 313 313 313 315 316 317 319 320 319 320 320 319 318 318 318 318 319 321 320 320 321 322 322 322 322 322 321 321 321
315 312 310 309 310 313 315 318 316 318 318 315 315 316 315 314 316 315 314 316 316 319 319 320 323 320 317 318 317 318 320 322 322 322 322 322 322 323 324 324 323 322 321 321 321
320 315 311 310 310 313 317 315 313 314 320 317 316 317 316 316 317 316 315 316 317 319 319 321 322 318 317 319 320 321 321 322 321 321 321 323 323 324 324 324 322 321 320 319 319
322 317 312 312 316 316 318 313 313 316 324 320 318 317 317 316 317 315 314 315 318 320 319 321 319 318 320 320 320 322 321 320 320 321 322 322 323 323 323 323 322 320 318 315 314
316 322 313 315 316 319 316 313 315 318 327 318 319 317 317 318 317 318 314 316 319 319 318 320 319 319 319 319 318 319 319 319 320 321 323 323 323 323 323 322 321 318 314 312 311
308 322 315 313 315 315 315 314 317 324 326 322 320 319 320 319 319 319 318 317 317 318 319 319 318 318 318 318 318 318 321 321 322 323 324 323 323 323 323 322 319 317 316 314 310
305 316 321 317 321 316 316 317 324 323 320 322 321 319 319 320 319 319 321 322 322 322 321 320 319 317 319 320 321 321 319 319 321 327 327 322 320 321 321 319 316 313 312 310 308
314 315 318 319 318 318 316 321 322 321 321 319 318 317 320 318 318 316 317 320 317 317 321 323 322 318 316 317 319 319 318 319 319 319 320 319 319 319 321 316 313 310 308 307 307
315 315 312 316 316 317 319 321 324 320 315 316 317 318 320 319 313 313 318 321 315 312 318 318 319 317 313 315 315 317 316 315 319 318 318 317 317 318 317 313 308 306 306 305 306
319 313 306 311 315 316 320 320 317 310 309 312 317 316 317 315 313 311 311 313 313 310 310 314 309 311 314 310 313 314 310 310 312 311 312 313 313 313 312 308 307 306 305 305 306
319 316 307 310 315 317 321 320 314 306 309 312 313 311 314 312 308 308 310 311 309 309 309 308 308 311 313 309 309 309 308 309 310 312 312 312 312 312 308 306 306 306 305 305 307
313 313 306 311 314 315 318 312 307 306 306 310 310 310 310 308 306 308 310 311 307 307 307 306 305 305 307 308 307 306 308 309 309 309 309 309 310 308 307 306 305 305 305 306 306
308 307 304 307 311 309 308 306 306 306 307 307 308 307 306 307 305 306 307 309 307 305 306 305 307 307 309 310 309 309 309 307 307 309 309 308 307 307 306 306 304 304 305 306 306
308 312 307 306 306 308 307 306 306 306 305 306 306 306 306 306 306 306 306 305 305 304 304 304 305 306 307 308 308 307 307 306 306 308 307 306 305 306 305 305 304 305 305 305 305
309 307 305 309 306 306 306 305 306 307 305 304 306 305 305 304 305 305 306 305 304 304 305 305 306 307 306 306 306 305 305 305 305 305 305 305 305 305 305 305 305 305 305 305 305
308 308 305 305 304 306 304 306 306 305 304 304 304 305 304 305 305 304 304 304 305 305 305 305 306 306 305 305 304 304 305 305 305 305 305 304 304 304 304 304 305 305 305 304 304
302 303 307 302 304 306 306 306 305 303 303 304 304 304 305 305 304 303 303 303 304 305 305 305 306 306 305 304 304 305 306 305 304 304 304 304 304 304 305 305 305 304 304 304 305
Wind_Speed
4 7 9 9 8 8 5 8 8 7 6 5 3 2 1 1 2 3 2 5 2 3 6 7 4 3 2 3 3 3 5 11 14 15 14 13 8 15 8 13 12 11 14 6 4
8 9 9 9 8 9 10 10 9 8 7 5 4 2 2 3 5 3 2 1 1 3 4 4 2 3 2 3 3 6 8 11 9 11 11 16 16 15 17 16 17 16 16 9 8
13 13 14 14 13 12 12 11 10 9 7 6 5 3 4 6 4 2 1 1 2 3 3 3 3 2 3 3 5 3 9 9 9 8 12 15 18 17 18 17 20 21 18 17 14
14 16 15 14 13 12 12 11 10 9 7 6 5 4 5 7 0 2 2 2 3 3 3 3 2 3 3 6 4 9 15 13 11 10 12 15 18 21 17 23 22 22 15 15 15
12 12 13 13 12 12 11 10 9 8 6 5 4 4 7 2 4 2 1 4 6 5 3 3 4 4 6 4 8 13 14 12 14 15 18 19 21 21 23 24 23 20 19 17 19
9 9 9 9 10 10 10 9 8 7 6 5 4 3 2 4 2 1 2 5 4 4 3 3 3 4 9 8 8 9 14 21 22 20 19 19 22 19 21 17 17 17 20 23 23
8 7 7 7 7 7 7 7 6 5 4 3 3 4 1 4 3 2 2 3 4 2 2 2 3 4 6 8 6 12 16 17 21 18 9 9 15 15 17 13 17 20 21 21 23
6 6 6 6 6 6 6 6 5 4 2 2 3 5 2 1 2 2 2 3 4 3 2 3 3 5 6 8 9 11 11 11 1 4 2 3 19 16 12 9 16 16 18 19 20
4 5 5 5 5 5 5 5 4 3 2 2 4 1 4 3 2 1 1 2 2 2 3 3 3 6 6 7 11 11 10 13 13 3 2 6 17 14 14 21 24 28 28 28 28
3 3 3 4 4 4 5 5 4 3 2 4 4 2 3 1 1 2 1 1 2 3 4 2 4 6 7 7 9 15 17 18 18 14 11 20 25 25 32 27 28 29 28 27 26
3 3 3 3 4 4 7 7 2 3 3 2 2 4 5 2 4 2 1 3 3 4 7 1 6 9 12 12 14 14 15 19 19 18 18 18 20 25 31 29 27 27 25 21 18
3 3 4 4 6 6 5 1 2 5 5 6 5 3 2 3 1 0 2 3 3 7 5 7 10 7 6 6 8 12 16 19 18 13 19 20 25 28 26 21 9 10 9 10 14
4 4 5 7 7 5 4 4 5 9 2 4 5 5 3 3 2 3 2 3 6 7 5 9 11 2 6 8 12 14 16 18 18 20 21 19 17 9 12 12 8 24 27 27 24
5 4 7 8 5 5 1 2 2 5 5 4 1 3 2 1 2 2 2 2 4 6 7 9 3 3 9 13 12 15 6 12 17 15 10 17 10 13 7 10 20 22 25 25 26
6 5 7 6 3 1 2 1 1 1 4 3 4 1 3 3 2 2 3 2 7 9 4 2 7 11 12 10 8 12 10 15 17 17 18 16 8 3 9 10 14 18 22 23 27
7 6 6 4 2 3 1 1 2 4 2 4 2 4 3 5 3 5 2 2 6 7 9 13 12 5 9 12 8 11 13 19 20 11 8 12 11 6 5 10 13 13 17 21 29
6 5 4 5 4 1 1 1 5 4 3 4 2 5 3 5 2 5 3 10 8 8 2 12 1 5 7 11 5 7 15 7 6 6 7 6 9 12 9 17 15 17 23 29 35
9 5 3 2 3 1 1 5 5 4 5 2 3 3 3 9 3 6 7 1 12 12 9 6 3 2 9 7 8 15 8 6 8 9 16 22 11 8 7 18 15 25 28 32 33
7 5 4 1 1 2 4 4 6 5 4 6 2 3 3 1 6 6 7 5 6 11 8 6 4 4 12 6 7 6 7 9 11 19 17 11 15 17 6 22 36 40 39 37 36
5 3 7 2 3 3 4 5 4 5 5 3 3 4 3 6 5 6 2 5 3 8 9 4 9 8 2 7 11 8 6 6 6 7 11 12 20 17 17 28 30 34 42 43 41
2 2 8 3 5 3 1 5 7 6 4 5 3 2 3 4 5 5 3 4 2 5 6 8 7 4 10 11 12 13 13 8 9 9 9 16 13 13 29 22 28 33 37 38 32
1 1 6 4 2 4 4 4 2 3 5 4 4 5 3 3 4 3 2 2 3 6 7 4 6 9 17 16 9 8 9 1 4 11 15 16 25 23 21 33 32 34 36 33 33
2 3 8 3 1 4 7 5 6 2 5 2 2 4 2 2 4 2 2 4 1 7 6 7 2 7 5 5 5 4 8 9 16 15 23 17 17 23 31 29 35 35 34 32 34
1 1 6 11 7 9 8 4 4 5 5 4 2 0 2 3 2 4 4 1 1 8 10 7 9 12 10 15 17 21 22 21 20 13 21 19 29 26 25 25 31 31 33 34 35
4 4 2 3 7 7 5 2 5 2 2 1 2 1 3 3 6 4 2 6 9 1 5 4 9 13 16 18 20 23 23 23 24 24 23 26 28 26 24 22 28 33 32 33 36
3 3 6 6 3 4 2 3 2 2 2 1 3 1 4 5 6 8 10 9 7 4 2 6 9 14 18 19 20 24 23 25 24 25 26 26 27 24 29 31 30 28 34 38 36
8 10 3 1 2 2 2 4 4 2 2 1 1 5 7 7 9 12 13 15 16 12 12 11 6 8 10 10 19 18 12 12 18 22 21 24 25 24 22 25 28 32 37 38 36
Wind_Direction
203 214 220 221 218 220 192 139 138 139 137 134 134 137 92 53 97 83 149 214 273 345 5 352 8 327 313 270 267 270 262 270 280 289 299 303 288 288 274 282 270 250 271 294 179
135 136 136 146 159 148 135 132 132 128 125 120 109 97 90 98 106 90 207 97 23 10 18 8 342 346 240 263 256 253 256 274 320 315 305 304 301 292 291 274 268 251 268 245 208
125 124 124 129 130 130 128 128 123 118 114 105 95 92 106 125 151 5 66 24 20 25 345 345 343 348 274 279 228 252 259 299 288 295 300 291 284 279 266 271 275 282 278 240 212
115 117 121 122 124 125 125 125 120 115 113 107 102 107 118 125 63 258 78 45 32 40 353 315 308 272 268 251 234 262 257 275 288 289 288 282 287 280 272 272 281 282 279 284 228
113 120 123 125 128 128 128 128 126 124 124 117 105 116 132 170 88 188 50 35 36 36 11 337 292 299 268 282 274 251 278 287 282 277 272 279 272 274 279 277 276 272 270 264 261
108 114 120 129 135 138 139 141 138 138 138 126 104 108 36 196 159 196 41 39 36 24 354 360 339 316 289 280 272 329 286 280 276 273 275 274 274 273 264 264 274 265 261 255 252
108 111 117 125 132 136 141 144 142 145 139 117 92 101 31 120 174 160 62 28 20 20 335 340 322 296 329 279 289 278 284 283 271 257 284 303 273 244 267 261 268 268 265 261 257
122 127 130 135 139 140 144 147 151 147 138 101 71 82 71 171 200 254 299 315 341 330 291 292 298 285 260 298 268 264 279 276 194 156 243 260 282 292 311 283 276 273 277 277 268
120 126 136 141 142 143 145 149 149 152 134 80 62 44 110 68 68 248 199 293 305 309 302 282 300 280 259 258 283 223 277 294 302 47 278 238 290 295 296 292 275 277 279 279 280
105 127 145 151 153 149 147 139 130 115 55 57 59 189 111 108 42 50 21 14 315 301 296 280 260 264 234 257 281 321 305 301 297 302 250 287 281 285 288 281 278 280 282 283 281
98 117 130 138 138 128 126 98 87 97 40 41 37 76 86 14 28 43 16 322 305 277 276 169 276 263 318 325 305 302 289 287 291 300 298 291 287 288 287 284 280 281 282 288 294
113 122 130 130 132 116 122 231 166 148 97 53 65 53 354 282 280 121 339 290 277 287 297 245 253 29 347 317 299 290 289 288 294 305 319 301 292 288 282 277 294 309 321 338 355
126 106 124 115 120 116 141 152 137 149 211 75 76 55 38 61 58 36 349 319 291 284 282 288 320 344 302 301 291 287 287 300 304 313 293 285 290 338 322 201 80 57 53 45 39
159 121 139 128 102 135 85 130 129 158 218 95 119 37 360 8 134 22 339 302 239 303 314 277 59 311 305 298 312 291 350 307 301 309 306 340 291 321 78 107 73 59 50 37 25
179 147 148 159 134 118 216 127 102 129 244 61 83 30 12 340 19 73 1 275 292 307 289 281 316 328 306 311 335 290 328 299 289 284 296 281 256 179 85 99 79 56 43 28 16
172 165 142 137 139 151 141 109 68 225 160 116 69 354 245 35 52 359 2 335 291 287 252 270 290 293 330 307 295 300 292 292 268 263 265 254 221 252 98 44 69 42 18 4 357
135 158 172 165 203 204 103 98 222 271 159 89 24 350 319 5 49 9 40 44 28 329 227 319 48 78 356 333 282 314 330 302 253 194 250 91 315 258 22 83 58 17 0 353 344
105 119 138 187 202 185 130 231 256 39 30 33 344 313 349 356 80 351 324 301 42 342 295 333 200 185 30 344 314 304 294 285 293 288 300 323 268 242 86 102 28 354 342 341 344
99 67 38 31 168 156 242 237 25 27 2 349 269 260 126 96 328 322 72 37 32 15 353 326 240 350 342 335 300 22 286 345 288 278 270 247 259 252 286 360 346 338 340 336 338
101 106 16 83 133 155 249 69 103 47 351 302 341 348 323 22 325 355 21 45 22 15 340 37 292 277 59 330 253 262 14 304 250 282 283 283 308 297 359 341 333 338 333 331 335
91 204 348 107 89 242 43 69 113 55 30 360 14 315 45 352 332 326 34 94 13 2 320 324 241 251 267 288 297 292 285 251 270 265 280 299 278 344 334 336 325 315 317 317 331
40 225 353 120 196 43 78 70 84 41 40 61 50 38 9 351 302 287 297 7 40 341 331 17 307 286 287 302 310 268 248 295 297 282 288 293 273 300 324 312 310 315 315 323 324
87 64 8 89 351 98 116 93 68 71 37 53 93 14 333 302 301 250 282 113 10 345 11 4 245 304 175 161 133 195 195 272 293 282 271 273 275 298 296 306 313 312 324 323 318
98 182 48 53 53 110 130 122 117 60 73 56 90 282 292 270 249 297 267 75 224 295 302 269 247 248 267 301 307 291 290 294 285 273 281 272 289 293 301 306 309 318 320 319 318
46 75 61 54 57 92 84 103 137 125 118 167 131 17 359 283 282 250 294 298 294 315 270 272 274 277 287 298 293 289 290 286 278 278 275 290 284 290 299 311 318 316 319 319 310
61 125 82 86 79 112 93 89 149 122 288 158 277 163 300 281 302 295 310 299 282 299 274 294 274 302 291 284 278 277 276 275 277 274 274 286 290 298 316 312 311 315 319 315 311
64 104 79 89 102 244 63 124 143 153 130 318 309 298 282 301 300 288 280 272 268 275 285 285 277 301 286 303 306 289 270 279 303 299 294 292 301 311 306 315 308 312 310 311 314